Lid_Strength_Index
13 15 15 14 12 9 10 6 6 7 5 6 7 4 4 1 0 0 0 -0 -0 -1 -1 -1 -1 -1 -1 -1 -1 -1 -1 -1
15 16 14 13 11 11 11 7 7 6 8 5 4 3 2 1 0 0 0 0 -1 -1 -1 -1 -1 -1 -1 -1 -1 -1 -1 -1
16 16 14 12 12 12 12 9 7 6 8 7 3 1 1 1 0 1 0 0 -0 -1 -1 -1 -1 -1 -1 -1 -1 -1 -1 -1
18 16 13 12 12 12 8 7 7 7 7 7 2 2 1 1 1 0 0 -0 -0 -1 -1 -1 -1 -1 -1 -1 -1 -1 -1 -1
17 16 14 12 11 13 8 8 8 6 9 6 4 2 1 1 0 0 -0 -0 -0 -0 -1 -1 -1 -1 -1 -1 -1 -1 -1 -1
17 15 14 12 11 12 7 8 4 4 9 8 5 2 1 1 1 1 0 0 0 -0 -0 0 -0 -1 -1 -1 -1 -2 -1 -1
17 15 14 12 12 10 8 7 6 5 5 4 3 2 2 2 2 1 1 0 0 0 0 0 0 -0 -1 -1 -1 -1 -1 -1
14 14 13 12 12 11 10 8 7 6 4 3 3 3 4 4 4 3 2 1 0 -0 -0 -0 -0 -0 -0 -0 -0 -0 -1 -0
12 12 12 12 11 10 10 9 6 7 5 4 4 4 4 3 3 3 2 1 0 0 -0 -0 0 -0 -0 -0 -0 0 -0 -0
10 12 13 12 11 11 10 9 5 5 4 4 4 4 4 4 3 3 2 1 1 0 0 -0 -0 -0 -0 -0 -0 -0 -0 -0
9 9 12 12 11 11 10 6 5 4 4 4 4 4 3 3 2 2 2 2 1 0 0 -0 1 -0 -0 -0 -0 -0 -0 -0
9 9 11 11 11 11 9 6 6 5 5 5 4 4 4 3 3 3 2 2 1 1 0 -0 0 0 -0 -0 -0 -0 -0 -0
10 10 10 10 10 10 8 6 6 6 5 5 4 4 4 3 3 2 2 1 1 1 0 0 0 0 1 0 -0 -0 -0 -0
11 9 9 9 12 9 8 7 6 6 6 6 5 4 3 3 2 2 2 2 2 0 0 1 1 1 1 1 1 0 -0 0
11 10 10 10 11 9 7 8 8 8 6 6 6 4 3 2 2 2 3 3 3 2 1 1 1 1 1 1 1 0 1 1
13 11 10 12 11 10 7 7 7 6 7 6 7 5 3 3 3 3 4 4 3 2 2 2 2 1 1 1 1 1 1 1
11 10 11 12 12 9 7 7 8 7 7 6 6 4 3 3 3 3 3 4 3 2 1 2 2 2 1 2 1 1 1 0
11 10 11 12 12 9 8 8 8 7 7 7 6 5 4 3 3 2 3 3 3 3 2 2 1 1 1 1 0 0 0 -0
12 11 11 12 13 11 8 8 7 7 7 6 6 6 5 5 4 3 3 3 3 3 3 3 1 0 1 1 1 2 1 1
11 13 14 12 16 14 11 10 9 8 8 8 7 6 6 6 6 5 4 4 3 3 3 3 3 3 3 3 3 2 1 1